Find Skynet 5C

NORAD ID: 33055 Int'l Des: 2008-030 Owner: PARA Country: UK operational
HEOCIRCULARGSO

Current View

Loading 3D Globe...

About Skynet 5C

Description loading...

Upcoming Passes

Passes for default location (London). Set your location on the main map for personalized predictions.

Altitude History

Loading altitude history...

Two-Line Element Set

1 33055U 08030A 26151.42644463 -.00000129 00000-0 00000+0 0 9997
2 33055 3.7469 77.2361 0004296 0.2363 307.2072 1.00271730 65786
Epoch: May 31, 2026 • Age: 13 hours

Current Status

Altitude 35801.5 km
Velocity 3.07 km/s
Sub-Earth Point 1.90°N, 17.69°W
Launch Date Jun 12, 2008
Age 17.9 years
Type other

Technical Details

Classification Payload
Mass 4635.00 kg
Dry Mass 2170.00 kg
Total Mass 4635.00 kg
Length 4.50 m
Diameter 2.90 m
Span 34.00 m
Shape Box + 2 Pan
Manufacturer EADSB
Bus Type Eurostar 3000
Phase Status Renamed
Owner/State PARA/UK

Most Searched